period_start,C,m1,H,J0,J1,J2,J3,J4,J5,JA,JB,JC,JD,JJ,JK,JN,#
2015-11-20 00:04:36,0.15,4.01,0.00,14.04,18.64,22.67,15.14,48.93,1025.90,2066.99,2254.74,2309.70,2536.49,599.86,620.12,54.92,0000 0000 0000 0000 000000
2015-11-20 00:09:37,0.11,4.02,0.00,14.03,18.64,22.67,15.13,48.93,1025.90,2066.98,2253.26,2308.51,2535.19,600.31,620.48,54.97,0000 0000 0000 0000 000000
2015-11-20 00:14:38,0.11,4.02,0.00,14.03,18.64,22.66,15.15,49.03,1025.94,2066.98,2252.02,2307.47,2533.99,599.75,620.08,55.02,0000 0000 0000 0000 000000
2015-11-20 00:19:40,0.20,4.03,0.00,14.00,18.64,22.67,15.21,49.14,1025.95,2066.99,2249.74,2305.83,2532.32,599.87,620.22,55.07,0000 0000 0000 0000 000000
2015-11-20 00:24:41,0.15,4.04,0.00,14.03,18.62,22.67,15.28,49.11,1025.97,2066.99,2247.86,2304.06,2530.28,599.69,619.92,55.12,0000 0000 0000 0000 000000
2015-11-20 00:29:42,0.16,4.05,0.00,14.00,18.62,22.68,15.33,49.04,1025.97,2066.99,2246.24,2302.49,2528.70,600.50,620.84,55.18,0000 0000 0000 0000 000000
2015-11-20 00:34:44,0.12,4.06,0.00,14.00,18.62,22.63,15.24,48.98,1026.13,2066.99,2244.69,2301.11,2527.16,600.02,620.50,55.23,0000 0000 0000 0000 000000
2015-11-20 00:39:45,0.09,4.06,0.00,13.99,18.62,22.69,15.21,49.02,1026.02,2066.99,2243.64,2300.17,2526.02,599.72,620.13,55.28,0000 0000 0000 0000 000000
2015-11-20 00:44:46,0.10,4.07,0.00,13.99,18.62,22.68,15.30,49.08,1025.97,2066.99,2242.40,2299.27,2524.99,599.96,620.47,55.33,0000 0000 0000 0000 000000
2015-11-20 00:49:48,0.13,4.07,0.00,14.01,18.62,22.67,15.20,48.87,1025.97,2066.99,2240.97,2298.18,2523.61,600.03,620.51,55.38,0000 0000 0000 0000 000000
2015-11-20 00:54:49,0.12,4.08,0.00,13.99,18.61,22.67,15.26,49.08,1025.92,2066.99,2239.45,2296.87,2522.30,600.35,620.74,55.43,0000 0000 0000 0000 000000
2015-11-20 00:59:50,0.12,4.09,0.00,13.99,18.60,22.62,15.24,48.92,1025.99,2067.00,2238.09,2295.63,2520.87,600.11,620.54,55.48,0000 0000 0000 0000 000000
2015-11-20 01:04:51,0.13,4.09,0.00,13.98,18.59,22.66,15.29,49.10,1026.36,2067.00,2236.70,2294.39,2519.54,600.11,620.70,55.53,0000 0000 0000 0000 000000
2015-11-20 01:09:52,0.10,4.10,0.00,13.99,18.59,22.64,15.23,49.04,1026.35,2067.00,2235.54,2293.33,2518.47,600.10,620.66,55.58,0000 0000 0000 0000 000000
2015-11-20 01:14:54,0.09,4.10,0.00,13.98,18.59,22.69,15.23,48.93,1026.37,2067.00,2234.40,2292.54,2517.54,599.98,620.68,55.63,0000 0000 0000 0000 000000
2015-11-20 01:19:55,0.09,4.11,0.00,13.96,18.59,22.63,15.26,49.10,1026.37,2067.00,2233.04,2291.64,2516.50,600.17,620.88,55.68,0000 0000 0000 0000 000000
2015-11-20 01:24:57,0.10,4.11,0.00,14.01,18.59,22.66,15.23,48.98,1026.26,2067.00,2231.83,2290.74,2515.52,600.14,620.73,55.73,0000 0000 0000 0000 000000
2015-11-20 01:29:58,0.11,4.12,0.00,14.00,18.59,22.63,15.19,48.98,1026.07,2067.00,2230.36,2289.71,2514.44,599.97,620.29,55.78,0000 0000 0000 0000 000000
2015-11-20 01:34:59,0.10,4.12,0.00,14.00,18.59,22.62,15.20,48.98,1026.24,2067.02,2229.03,2288.74,2513.22,599.83,620.40,55.83,0000 0000 0000 0000 000000
2015-11-20 01:40:00,0.13,4.13,0.00,14.04,18.59,22.61,15.25,49.02,1026.31,2067.01,2227.59,2287.61,2512.06,600.29,620.78,55.88,0000 0000 0000 0000 000000
2015-11-20 01:45:02,0.12,4.14,0.00,14.05,18.58,22.61,15.22,49.07,1026.38,2067.00,2226.40,2286.52,2510.73,600.13,620.63,55.93,0000 0000 0000 0000 000000
2015-11-20 01:50:03,0.07,4.14,0.00,14.06,18.59,22.61,15.31,49.12,1026.38,2067.00,2225.31,2285.75,2509.82,599.99,620.53,55.98,0000 0000 0000 0000 000000
2015-11-20 01:55:04,0.10,4.15,0.00,14.07,18.59,22.59,15.23,49.02,1026.39,2067.00,2223.44,2283.76,2507.74,599.94,620.46,56.03,0000 0000 0000 0000 000000
2015-11-20 02:00:05,2.98,4.26,0.00,14.04,18.59,22.58,15.20,49.13,1026.38,2067.00,2201.81,2258.28,2480.09,600.19,620.74,56.09,0000 0000 0000 0000 000000
2015-11-20 02:05:06,0.16,4.30,0.00,14.05,18.59,22.61,15.23,49.04,1026.38,2066.99,2197.79,2254.07,2475.46,600.07,620.50,56.14,0000 0000 0000 0000 000000
2015-11-20 02:10:08,0.23,4.30,0.00,14.02,18.59,22.58,15.19,49.12,1026.38,2066.99,2196.03,2252.15,2473.36,599.71,620.24,56.19,0000 0000 0000 0000 000000
2015-11-20 02:15:09,0.19,4.32,0.00,14.03,18.59,22.62,15.28,49.25,1026.36,2066.99,2193.84,2249.66,2470.90,600.02,620.54,56.24,0000 0000 0000 0000 000000
2015-11-20 02:20:10,0.12,4.32,0.00,14.06,18.59,22.59,15.32,49.23,1026.38,2066.99,2192.47,2248.56,2469.70,600.05,620.59,56.29,0000 0000 0000 0000 000000
2015-11-20 02:25:11,0.06,4.33,0.00,14.06,18.59,22.60,15.24,49.22,1026.33,2066.99,2191.52,2247.90,2468.86,599.79,620.36,56.34,0000 0000 0000 0000 000000
2015-11-20 02:30:12,0.09,4.33,0.00,14.05,18.59,22.66,15.29,49.30,1026.19,2066.99,2190.40,2247.05,2467.97,600.19,620.70,56.39,0000 0000 0000 0000 000000
2015-11-20 02:35:14,0.09,4.34,0.00,14.04,18.59,22.67,15.26,49.40,1025.91,2066.99,2189.38,2246.22,2467.06,600.22,620.40,56.44,0000 0000 0000 0000 000000
2015-11-20 02:40:15,0.09,4.34,0.00,14.07,18.59,22.64,15.19,49.22,1025.90,2066.99,2188.42,2245.47,2466.16,600.00,620.08,56.49,0000 0000 0000 0000 000000
2015-11-20 02:45:16,0.10,4.35,0.00,14.05,18.59,22.60,15.28,49.29,1025.88,2066.99,2187.12,2244.59,2465.03,600.29,620.48,56.54,0000 0000 0000 0000 000000
2015-11-20 02:50:18,0.14,4.36,0.00,14.07,18.59,22.64,15.24,49.42,1025.56,2066.99,2185.62,2243.30,2463.76,600.21,620.23,56.59,0000 0000 0000 0000 000000
2015-11-20 02:55:19,0.11,4.36,0.00,14.07,18.58,22.67,15.25,49.20,1025.54,2066.99,2184.50,2242.19,2462.56,599.76,619.66,56.64,0000 0000 0000 0000 000000
2015-11-20 03:00:21,0.11,4.37,0.00,14.08,18.57,22.62,15.21,49.24,1025.80,2066.99,2183.17,2241.11,2461.21,600.11,620.20,56.69,0000 0000 0000 0000 000000
2015-11-20 03:05:22,0.09,4.37,0.00,14.04,18.57,22.62,15.30,49.23,1025.90,2066.99,2182.11,2240.32,2460.31,600.21,620.41,56.74,0000 0000 0000 0000 000000
2015-11-20 03:10:24,0.12,4.38,0.00,14.06,18.57,22.62,15.21,49.17,1025.82,2066.99,2180.78,2239.31,2459.15,599.95,620.04,56.79,0000 0000 0000 0000 000000
2015-11-20 03:15:25,0.13,4.39,0.00,14.04,18.57,22.64,15.17,49.23,1025.81,2066.99,2179.43,2238.23,2457.88,599.60,619.76,56.84,0000 0000 0000 0000 000000
2015-11-20 03:20:26,0.10,4.39,0.00,14.03,18.57,22.63,15.27,49.16,1025.87,2066.99,2178.06,2237.06,2456.58,600.08,620.34,56.89,0000 0000 0000 0000 000000
2015-11-20 03:25:27,0.10,4.40,0.00,14.03,18.57,22.67,15.15,49.17,1025.89,2066.99,2176.97,2236.20,2455.61,599.93,620.23,56.94,0000 0000 0000 0000 000000
2015-11-20 03:30:28,0.17,4.40,0.00,14.00,18.56,22.63,15.21,49.37,1025.79,2066.99,2175.30,2234.71,2454.02,599.63,619.88,57.00,0000 0000 0000 0000 000000
2015-11-20 03:35:30,0.10,4.41,0.00,14.01,18.56,22.63,15.23,49.18,1025.62,2066.99,2174.07,2233.63,2452.82,599.82,619.94,57.05,0000 0000 0000 0000 000000
2015-11-20 03:40:30,0.13,4.42,0.00,14.00,18.54,22.67,15.30,49.24,1025.42,2066.99,2172.82,2232.49,2451.60,600.31,620.44,57.10,0000 0000 0000 0000 000000
2015-11-20 03:45:32,0.11,4.42,0.00,13.98,18.54,22.60,15.25,49.36,1025.58,2066.99,2171.63,2231.56,2450.45,600.01,620.19,57.15,0000 0000 0000 0000 000000
2015-11-20 03:50:33,0.11,4.43,0.00,13.97,18.54,22.62,15.28,49.17,1026.06,2066.99,2170.38,2230.43,2449.26,600.15,620.75,57.20,0000 0000 0000 0000 000000
2015-11-20 03:55:34,0.10,4.43,0.00,13.96,18.54,22.59,15.18,49.11,1026.37,2066.99,2169.12,2229.44,2448.15,599.97,620.79,57.25,0000 0000 0000 0000 000000
2015-11-20 04:00:36,0.10,4.44,0.00,13.98,18.53,22.59,15.26,49.33,1026.18,2066.99,2168.02,2228.42,2447.04,599.82,620.38,57.30,0000 0000 0000 0000 000000
2015-11-20 04:05:37,0.08,4.44,0.00,13.94,18.52,22.60,15.23,49.30,1025.89,2067.00,2167.07,2227.67,2446.08,599.94,620.51,57.35,0000 0000 0000 0000 000000
2015-11-20 04:10:38,0.07,4.45,0.00,13.94,18.52,22.61,15.29,49.17,1025.89,2067.00,2166.05,2226.93,2445.25,600.27,620.75,57.40,0000 0000 0000 0000 000000
2015-11-20 04:15:40,0.11,4.45,0.00,13.92,18.52,22.56,15.17,49.13,1025.66,2067.00,2164.81,2226.07,2444.31,599.81,620.16,57.45,0000 0000 0000 0000 000000
2015-11-20 04:20:41,0.10,4.46,0.00,13.91,18.51,22.58,15.15,49.10,1025.42,2067.00,2163.67,2225.25,2443.49,599.82,620.05,57.50,0000 0000 0000 0000 000000
2015-11-20 04:25:43,0.13,4.46,0.00,13.90,18.50,22.57,15.16,49.48,1025.41,2067.01,2162.21,2224.19,2442.31,600.12,620.29,57.55,0000 0000 0000 0000 000000
2015-11-20 04:30:44,0.14,4.47,0.00,13.88,18.49,22.56,15.24,49.46,1025.40,2067.01,2160.62,2222.81,2440.81,599.91,620.25,57.60,0000 0000 0000 0000 000000
2015-11-20 04:35:45,0.15,4.48,0.00,13.89,18.49,22.53,15.17,49.33,1025.40,2067.05,2159.06,2221.37,2439.26,600.19,620.47,57.65,0000 0000 0000 0000 000000
2015-11-20 04:40:46,0.15,4.49,0.00,13.85,18.49,22.54,15.20,49.38,1025.42,2067.05,2157.57,2219.97,2437.83,599.96,620.32,57.70,0000 0000 0000 0000 000000
2015-11-20 04:45:47,0.19,4.50,0.00,13.86,18.47,22.54,15.28,49.17,1025.61,2067.08,2155.77,2218.25,2435.96,600.08,620.57,57.75,0000 0000 0000 0000 000000
2015-11-20 04:50:49,0.13,4.51,0.00,13.84,18.47,22.52,15.29,49.18,1025.76,2067.11,2154.37,2216.89,2434.40,600.00,620.52,57.81,0000 0000 0000 0000 000000
2015-11-20 04:55:50,0.14,4.51,0.00,13.85,18.47,22.48,15.29,49.01,1025.84,2067.20,2153.03,2215.69,2433.23,600.29,620.99,57.86,0000 0000 0000 0000 000000
2015-11-20 05:00:51,0.14,4.52,0.00,13.87,18.45,22.50,15.25,48.98,1025.89,2067.13,2151.55,2214.43,2431.81,599.90,620.50,57.91,0000 0000 0000 0000 000000
2015-11-20 05:05:52,0.12,4.52,0.00,13.86,18.44,22.53,15.20,49.13,1025.89,2067.15,2150.33,2213.29,2430.53,600.12,620.76,57.96,0000 0000 0000 0000 000000
2015-11-20 05:10:54,0.18,4.53,0.00,13.89,18.44,22.47,15.19,49.39,1025.76,2067.19,2148.80,2211.72,2428.97,600.18,620.73,58.01,0000 0000 0000 0000 000000
2015-11-20 05:15:55,0.17,4.54,0.00,13.88,18.44,22.48,15.20,49.22,1025.44,2067.19,2146.99,2210.28,2427.37,600.05,620.40,58.06,0000 0000 0000 0000 000000
2015-11-20 05:20:56,0.21,4.55,0.00,13.89,18.43,22.49,15.25,49.32,1025.41,2067.27,2144.90,2208.42,2425.33,600.04,620.37,58.11,0000 0000 0000 0000 000000
2015-11-20 05:25:58,0.33,4.57,0.00,13.89,18.42,22.44,15.31,49.52,1025.21,2067.42,2142.27,2205.85,2422.52,600.27,620.40,58.16,0000 0000 0000 0000 000000
2015-11-20 05:30:59,0.48,4.59,0.00,13.90,18.42,22.49,15.28,49.58,1025.16,2067.46,2138.35,2201.70,2418.17,600.15,620.29,58.21,0000 0000 0000 0000 000000
2015-11-20 05:36:01,0.33,4.61,0.00,13.90,18.42,22.48,15.26,49.67,1024.97,2067.45,2134.76,2197.70,2414.06,599.86,619.92,58.26,0000 0000 0000 0000 000000
2015-11-20 05:41:02,0.44,4.63,0.00,13.87,18.41,22.47,15.24,49.85,1024.92,2067.56,2131.03,2193.80,2409.89,600.03,619.99,58.31,0000 0000 0000 0000 000000
2015-11-20 05:46:03,0.23,4.64,0.00,13.86,18.39,22.43,15.23,49.77,1024.90,2067.68,2128.66,2191.38,2407.22,599.86,619.90,58.36,0000 0000 0000 0000 000000
2015-11-20 05:51:05,0.33,4.66,0.00,13.82,18.39,22.44,15.18,49.48,1024.86,2067.72,2125.76,2188.32,2404.06,600.14,620.21,58.41,0000 0000 0000 0000 000000
2015-11-20 05:56:06,0.22,4.67,0.00,13.82,18.39,22.41,15.16,49.42,1024.91,2067.85,2123.54,2186.20,2401.83,600.05,620.17,58.46,0000 0000 0000 0000 000000
2015-11-20 06:01:07,0.18,4.68,0.00,13.80,18.37,22.41,15.32,49.58,1024.94,2067.88,2121.55,2184.55,2400.08,600.17,620.27,58.51,0000 0000 0000 0000 000000
2015-11-20 06:06:09,0.20,4.69,0.00,13.78,18.37,22.39,15.27,49.74,1025.02,2067.84,2119.70,2182.67,2398.06,600.28,620.54,58.56,0000 0000 0000 0000 000000
2015-11-20 06:11:10,0.16,4.70,0.00,13.80,18.37,22.38,15.22,49.80,1024.90,2067.92,2118.17,2181.24,2396.40,600.12,620.31,58.61,0000 0000 0000 0000 000000
2015-11-20 06:16:11,0.29,4.71,0.00,13.76,18.35,22.36,15.22,49.71,1024.89,2067.96,2115.51,2178.71,2393.94,599.63,619.85,58.66,0000 0000 0000 0000 000000
2015-11-20 06:21:12,0.15,4.73,0.00,13.79,18.34,22.38,15.11,49.46,1024.97,2067.93,2113.56,2176.96,2392.10,599.77,619.89,58.71,0000 0000 0000 0000 000000
2015-11-20 06:26:13,0.17,4.73,0.00,13.76,18.34,22.35,15.34,49.58,1025.09,2067.96,2111.95,2175.70,2390.70,600.12,620.50,58.77,0000 0000 0000 0000 000000
2015-11-20 06:31:15,0.13,4.74,0.00,13.76,18.32,22.37,15.19,49.57,1024.99,2067.97,2110.57,2174.59,2389.34,599.97,620.27,58.82,0000 0000 0000 0000 000000
2015-11-20 06:36:16,0.15,4.75,0.00,13.78,18.32,22.35,15.28,49.46,1024.94,2067.99,2108.93,2173.18,2387.86,600.23,620.36,58.87,0000 0000 0000 0000 000000
2015-11-20 06:41:17,0.21,4.76,0.00,13.75,18.31,22.29,15.24,49.49,1024.98,2067.99,2106.61,2171.57,2386.23,599.99,620.24,58.92,0000 0000 0000 0000 000000
2015-11-20 06:46:19,0.30,4.77,0.00,13.76,18.30,22.31,15.18,49.69,1024.92,2067.99,2103.98,2169.17,2383.41,600.05,620.47,58.97,0000 0000 0000 0000 000000
2015-11-20 06:51:20,0.20,4.78,0.00,13.74,18.29,22.32,15.27,49.47,1024.88,2067.99,2101.77,2167.02,2381.06,599.66,619.92,59.02,0000 0000 0000 0000 000000
2015-11-20 06:56:22,0.18,4.79,0.00,13.74,18.29,22.28,15.24,49.75,1024.52,2067.99,2100.04,2165.35,2379.31,600.05,620.02,59.07,0000 0000 0000 0000 000000
2015-11-20 07:01:23,0.34,4.81,0.00,13.75,18.28,22.32,15.29,50.11,1024.53,2067.99,2096.89,2162.70,2376.41,600.00,620.03,59.12,0000 0000 0000 0000 000000
2015-11-20 07:06:24,0.56,4.83,0.00,13.70,18.27,22.25,15.20,49.89,1024.89,2067.99,2092.43,2157.84,2371.39,599.55,619.93,59.17,0000 0000 0000 0000 000000
2015-11-20 07:11:26,0.38,4.85,0.00,13.69,18.27,22.26,15.20,49.78,1024.91,2067.99,2088.60,2153.81,2367.05,599.98,620.38,59.22,0000 0000 0000 0000 000000
2015-11-20 07:16:27,0.30,4.87,0.00,13.67,18.25,22.27,15.18,49.86,1024.84,2067.99,2085.72,2150.74,2363.82,599.89,620.22,59.27,0000 0000 0000 0000 000000
2015-11-20 07:21:28,0.24,4.88,0.00,13.65,18.24,22.25,15.26,50.25,1024.61,2067.99,2083.51,2148.39,2361.41,599.98,620.23,59.32,0000 0000 0000 0000 000000
2015-11-20 07:26:29,0.21,4.90,0.00,13.67,18.24,22.28,15.27,50.13,1024.51,2067.99,2081.48,2146.42,2359.43,599.95,620.05,59.37,0000 0000 0000 0000 000000
2015-11-20 07:31:31,0.23,4.91,0.00,13.66,18.22,22.25,15.27,50.21,1024.84,2067.99,2079.45,2144.32,2357.33,600.05,620.48,59.42,0000 0000 0000 0000 000000
2015-11-20 07:36:32,0.30,4.93,0.00,13.65,18.21,22.24,15.21,49.90,1024.92,2068.01,2076.69,2141.70,2354.64,599.94,620.42,59.47,0000 0000 0000 0000 000000
2015-11-20 07:41:33,0.21,4.93,0.00,13.67,18.19,22.22,15.33,50.23,1024.92,2068.00,2074.54,2139.55,2352.41,600.18,620.60,59.52,0000 0000 0000 0000 000000
2015-11-20 07:46:34,0.18,4.95,0.00,13.64,18.19,22.24,15.30,49.96,1024.93,2068.00,2072.64,2137.99,2350.47,599.97,620.46,59.57,0000 0000 0000 0000 000000
2015-11-20 07:51:36,0.15,4.95,0.00,13.63,18.17,22.22,15.20,50.14,1024.94,2068.01,2071.17,2136.74,2348.99,599.53,620.07,59.62,0000 0000 0000 0000 000000
2015-11-20 07:56:37,0.17,4.96,0.00,13.63,18.17,22.22,15.30,50.17,1025.08,2068.01,2069.55,2135.45,2347.53,600.16,620.79,59.68,0000 0000 0000 0000 000000
2015-11-20 08:01:38,0.21,1.49,0.00,13.66,18.17,22.17,13.44,43.58,1025.41,2070.80,3187.87,2950.24,3255.18,533.03,553.32,0.03,0000 0000 0000 0000 000002
2015-11-20 08:06:39,0.21,0.00,0.00,13.62,18.15,22.18,15.22,48.86,1025.71,2072.00,3660.15,3294.50,3639.00,599.99,621.05,0.05,0000 0000 0000 0000 000000
2015-11-20 08:11:41,0.20,0.01,0.00,13.62,18.14,22.16,15.19,48.77,1025.89,2072.00,3656.54,3292.19,3636.40,599.83,620.92,0.10,0000 0000 0000 0000 000000
2015-11-20 08:16:42,0.19,0.01,0.00,13.61,18.13,22.15,15.21,48.72,1025.89,2071.99,3653.42,3290.04,3634.05,599.73,620.87,0.15,0000 0000 0000 0000 000000
2015-11-20 08:21:43,0.17,0.02,0.00,13.58,18.12,22.14,15.24,48.88,1025.90,2071.99,3650.51,3288.11,3631.72,600.02,621.27,0.20,0000 0000 0000 0000 000000
2015-11-20 08:26:44,0.14,0.02,0.00,13.59,18.12,22.15,15.24,48.83,1025.90,2072.00,3647.75,3286.25,3629.58,599.95,621.19,0.25,0000 0000 0000 0000 000000
2015-11-20 08:31:46,0.14,0.03,0.00,13.56,18.09,22.13,15.22,48.93,1025.74,2072.00,3644.73,3284.08,3627.09,599.88,621.11,0.30,0000 0000 0000 0000 000000
2015-11-20 08:36:47,0.14,0.04,0.00,13.55,18.09,22.12,15.35,49.26,1025.54,2072.00,3641.67,3281.69,3624.47,600.20,621.20,0.35,0000 0000 0000 0000 000000
2015-11-20 08:41:48,0.18,0.05,0.00,13.54,18.08,22.17,15.23,49.23,1025.29,2072.01,3637.96,3278.63,3621.09,600.09,621.18,0.40,0000 0000 0000 0000 000000
2015-11-20 08:46:50,0.20,0.06,0.00,13.49,18.07,22.10,15.26,49.44,1024.92,2072.02,3634.06,3275.21,3617.29,600.05,620.91,0.45,0000 0000 0000 0000 000000
2015-11-20 08:51:51,0.20,0.07,0.00,13.48,18.07,22.09,15.23,49.63,1024.63,2072.03,3630.08,3271.60,3613.39,600.07,620.88,0.50,0000 0000 0000 0000 000000
2015-11-20 08:56:52,0.24,0.08,0.00,13.46,18.04,22.10,15.31,49.82,1024.59,2072.02,3625.77,3267.37,3608.97,599.93,620.73,0.55,0000 0000 0000 0000 000000
2015-11-20 09:01:53,0.16,0.09,0.00,13.43,18.04,22.14,15.21,49.58,1024.70,2072.04,3622.12,3264.08,3605.33,599.84,620.73,0.60,0000 0000 0000 0000 000000
2015-11-20 09:06:55,0.17,0.10,0.00,13.44,18.03,22.06,15.24,49.49,1024.92,2072.07,3618.57,3261.22,3601.83,600.03,620.95,0.65,0000 0000 0000 0000 000000
2015-11-20 09:11:56,0.13,0.10,0.00,13.45,18.02,22.03,15.26,49.40,1024.94,2072.07,3615.58,3258.98,3599.24,600.27,621.20,0.70,0000 0000 0000 0000 000000
2015-11-20 09:16:57,0.13,0.11,0.00,13.41,18.01,22.07,15.25,49.18,1024.96,2072.10,3612.58,3256.83,3596.80,600.17,621.19,0.75,0000 0000 0000 0000 000000
2015-11-20 09:21:58,0.17,0.12,0.00,13.42,17.99,22.02,15.23,49.04,1024.92,2072.22,3609.22,3254.32,3593.96,600.18,621.15,0.80,0000 0000 0000 0000 000000
2015-11-20 09:26:59,0.15,0.13,0.00,13.45,17.99,22.06,15.15,48.93,1024.92,2072.42,3606.14,3251.86,3591.26,600.00,620.93,0.85,0000 0000 0000 0000 000000
2015-11-20 09:32:01,0.14,0.13,0.00,13.43,17.97,22.04,15.30,49.13,1024.92,2072.45,3603.09,3249.54,3588.59,600.18,621.03,0.90,0000 0000 0000 0000 000000
2015-11-20 09:37:03,0.16,0.14,0.00,13.44,17.97,22.01,15.32,48.92,1025.01,2072.64,3599.91,3247.14,3585.81,600.42,621.50,0.95,0000 0000 0000 0000 000000
2015-11-20 09:42:04,0.13,0.15,0.00,13.41,17.96,21.98,15.25,48.99,1024.93,2072.56,3596.78,3244.64,3583.19,599.91,620.92,1.00,0000 0000 0000 0000 000000
2015-11-20 09:47:05,0.16,0.16,0.00,13.42,17.94,22.00,15.26,49.13,1024.96,2072.75,3593.74,3242.19,3580.63,600.10,621.13,1.05,0000 0000 0000 0000 000000
2015-11-20 09:52:07,0.16,0.17,0.00,13.43,17.94,21.98,15.24,49.20,1024.91,2072.82,3590.61,3239.47,3577.77,600.12,621.08,1.10,0000 0000 0000 0000 000000
2015-11-20 09:57:08,0.18,0.17,0.00,13.39,17.94,21.99,15.32,49.49,1024.57,2072.69,3586.80,3236.12,3574.03,600.25,621.20,1.15,0000 0000 0000 0000 000000
2015-11-20 10:02:09,0.17,0.18,0.00,13.40,17.92,21.98,15.26,49.43,1024.55,2072.82,3583.48,3233.10,3570.69,600.06,620.93,1.20,0000 0000 0000 0000 000000
2015-11-20 10:07:11,0.13,0.19,0.00,13.40,17.92,22.00,15.22,49.36,1024.77,2072.90,3580.89,3230.79,3568.25,599.93,620.87,1.25,0000 0000 0000 0000 000000
2015-11-20 10:12:12,0.13,0.20,0.00,13.38,17.92,21.95,15.27,49.30,1024.88,2072.88,3578.03,3228.56,3565.80,599.97,621.01,1.30,0000 0000 0000 0000 000000
2015-11-20 10:17:13,0.13,0.21,0.00,13.39,17.90,21.96,15.21,49.28,1024.89,2072.91,3575.30,3226.34,3563.30,599.99,621.03,1.35,0000 0000 0000 0000 000000
2015-11-20 10:22:15,0.12,0.21,0.00,13.38,17.89,21.97,15.24,49.31,1024.63,2072.95,3572.80,3224.50,3561.22,600.04,620.94,1.40,0000 0000 0000 0000 000000
2015-11-20 10:27:16,0.12,0.22,0.00,13.35,17.89,22.01,15.20,49.45,1024.43,2072.97,3570.20,3222.58,3559.20,599.87,620.80,1.45,0000 0000 0000 0000 000000
2015-11-20 10:32:17,0.25,0.23,0.00,13.41,17.88,21.95,15.25,49.67,1024.42,2072.97,3566.20,3218.65,3555.31,599.98,620.54,1.50,0000 0000 0000 0000 000000
2015-11-20 10:37:18,0.21,0.24,0.00,13.38,17.87,21.94,15.23,49.60,1024.41,2072.99,3561.93,3214.35,3550.57,599.94,620.70,1.55,0000 0000 0000 0000 000000
2015-11-20 10:42:20,0.25,0.25,0.00,13.41,17.87,21.93,15.25,49.63,1024.40,2072.97,3557.68,3209.89,3546.18,600.20,620.86,1.60,0000 0000 0000 0000 000000
2015-11-20 10:47:21,0.24,0.26,0.00,13.40,17.86,21.92,15.17,49.39,1024.43,2072.98,3553.20,3205.54,3541.54,599.94,620.70,1.65,0000 0000 0000 0000 000000
2015-11-20 10:52:22,0.27,0.28,0.00,13.38,17.84,21.92,15.27,49.52,1024.43,2072.99,3548.37,3200.71,3536.47,599.94,620.79,1.70,0000 0000 0000 0000 000000
2015-11-20 10:57:23,0.20,0.29,0.00,13.40,17.84,21.87,15.26,49.50,1024.43,2072.99,3544.58,3196.68,3532.07,600.15,620.85,1.75,0000 0000 0000 0000 000000
2015-11-20 11:02:24,0.21,0.30,0.00,13.37,17.84,21.92,15.27,49.51,1024.43,2072.99,3540.81,3193.17,3528.21,599.94,620.74,1.80,0000 0000 0000 0000 000000
2015-11-20 11:07:26,0.23,0.31,0.00,13.37,17.83,21.90,15.29,49.60,1024.43,2072.99,3536.47,3189.11,3523.63,600.02,620.75,1.85,0000 0000 0000 0000 000000
2015-11-20 11:12:27,0.15,0.32,0.00,13.38,17.82,21.91,15.14,49.53,1024.43,2072.99,3533.38,3186.08,3520.55,599.77,620.55,1.90,0000 0000 0000 0000 000000
2015-11-20 11:17:28,0.15,0.33,0.00,13.37,17.82,21.86,15.25,49.64,1024.43,2072.99,3530.49,3183.49,3517.91,600.06,621.00,1.95,0000 0000 0000 0000 000000
2015-11-20 11:22:30,0.23,0.34,0.00,13.34,17.82,21.86,15.25,49.54,1024.45,2072.99,3526.52,3179.82,3513.83,600.22,621.09,2.00,0000 0000 0000 0000 000000
2015-11-20 11:27:31,0.27,0.35,0.00,13.39,17.81,21.88,15.27,49.75,1024.43,2072.99,3521.73,3175.22,3508.76,600.15,620.99,2.05,0000 0000 0000 0000 000000
2015-11-20 11:32:32,0.23,0.36,0.00,13.44,17.80,21.87,15.20,49.63,1024.53,2073.00,3517.46,3170.74,3503.87,599.70,620.40,2.10,0000 0000 0000 0000 000000
2015-11-20 11:37:33,0.16,0.37,0.00,13.40,17.79,21.83,15.21,49.44,1024.73,2073.00,3514.30,3167.82,3500.63,599.77,620.83,2.15,0000 0000 0000 0000 000000
2015-11-20 11:42:35,0.20,0.38,0.00,13.38,17.79,21.85,15.18,49.58,1024.46,2073.01,3510.67,3164.50,3496.98,599.96,620.74,2.20,0000 0000 0000 0000 000000
2015-11-20 11:47:36,0.22,0.40,0.00,13.40,17.79,21.86,15.33,49.82,1024.44,2073.01,3506.54,3160.58,3492.59,600.21,620.92,2.25,0000 0000 0000 0000 000000
2015-11-20 11:52:37,0.28,0.41,0.00,13.40,17.79,21.85,15.27,49.87,1024.43,2073.02,3501.78,3155.97,3487.68,600.20,620.96,2.30,0000 0000 0000 0000 000000
2015-11-20 11:57:39,0.19,0.42,0.00,13.37,17.79,21.85,15.28,49.54,1024.48,2073.02,3497.85,3152.24,3483.47,600.36,621.21,2.35,0000 0000 0000 0000 000000
2015-11-20 12:02:40,0.13,0.43,0.00,13.36,17.79,21.84,15.23,49.63,1024.59,2073.02,3495.21,3149.92,3480.93,600.04,621.09,2.41,0000 0000 0000 0000 000000
2015-11-20 12:07:42,0.11,0.43,0.00,13.36,17.78,21.82,15.24,49.45,1024.85,2073.01,3492.58,3147.93,3478.71,599.95,621.06,2.46,0000 0000 0000 0000 000000
2015-11-20 12:12:43,0.11,0.44,0.00,13.35,17.78,21.77,15.19,49.32,1024.96,2073.01,3490.19,3146.23,3476.66,599.71,620.97,2.51,0000 0000 0000 0000 000000
2015-11-20 12:17:44,0.13,0.45,0.00,13.38,17.77,21.84,15.28,49.38,1025.37,2073.01,3487.48,3144.35,3474.34,600.28,621.65,2.56,0000 0000 0000 0000 000000
2015-11-20 12:22:46,0.12,0.45,0.00,13.37,17.77,21.87,15.28,49.39,1025.41,2073.01,3484.91,3142.15,3471.95,600.06,621.35,2.61,0000 0000 0000 0000 000000
2015-11-20 12:27:47,0.10,0.46,0.00,13.36,17.77,21.89,15.24,49.34,1025.42,2073.01,3482.58,3140.38,3469.97,599.94,621.30,2.66,0000 0000 0000 0000 000000
2015-11-20 12:32:49,0.10,0.46,0.00,13.37,17.77,21.83,15.20,49.28,1025.44,2073.01,3480.29,3138.74,3468.09,599.77,621.17,2.71,0000 0000 0000 0000 000000
2015-11-20 12:37:51,0.12,0.47,0.00,13.37,17.77,21.82,15.19,49.19,1025.42,2073.01,3477.88,3136.91,3466.03,599.77,621.23,2.76,0000 0000 0000 0000 000000
2015-11-20 12:42:52,0.13,0.48,0.00,13.36,17.77,21.87,15.18,49.40,1025.41,2073.01,3475.25,3134.87,3463.67,599.59,621.02,2.81,0000 0000 0000 0000 000000
2015-11-20 12:47:54,0.12,0.48,0.00,13.35,17.77,21.84,15.25,49.42,1025.42,2073.00,3472.67,3132.92,3461.41,600.47,621.94,2.86,0000 0000 0000 0000 000000
2015-11-20 12:52:54,0.13,0.49,0.00,13.34,17.76,21.83,15.27,49.58,1025.42,2073.03,3470.18,3130.89,3459.29,600.07,621.54,2.91,0000 0000 0000 0000 000000
2015-11-20 12:57:55,0.16,0.50,0.00,13.34,17.76,21.85,15.32,49.64,1025.22,2073.01,3467.17,3128.24,3456.47,600.22,621.41,2.96,0000 0000 0000 0000 000000